Showing default

TANSUO 1, 28220

Orbit data source: Space-Track

TANSUO 1, 28220 is a payload satellite owned by CASC (CN) in SSO that was launched on Sun, 18 Apr 2004 UTC via a CHANG ZHENG 2C launch vehicle from the Xichang Space Center, China (XSC). Payload-class satellites include a variety of spacecraft equipped with specific instruments for various scientific and technological missions. These include communications satellites like Starlink; space stations such as the ISS; scientific satellites like the Hubble; Earth observation satellites from companies like Planet Labs, Umbra, and HawkEye 360; GPS; miniature CubeSats for education and research; and military/defense satellites.

Loading next visibility...
Identifier
28220, 2004-012A
Orbit
SSO
Country
Flag of CNCN / PRC
Related business
Manufacturer
DFH/HARB
Mission
Operational Civil Imaging
Bus & Motor
SY, Unknown motor
Mass
204 kg wet, 204 kg dry
Launch date (UTC)
2004-04-18 (22 years ago)
Launch vehicle
CHANG ZHENG 2C
Launch site
Xichang Space Center, China (XSC)
Object type
Payload
Rocket body
Debris
Shape & HBR
Box + 1 Pan, 1.5 m
Radar Cross Section
2.043 m², Large (>1 m²)

Expand to show TLE details & history
Last TLE update: 21 hours ago

TLE from 21 hours ago
0 TANSUO 1
1 28220U 04012A   25348.75801852  .00010864  00000-0  39784-3 0  9992
2 28220  97.8938  50.4154 0005520 317.9561  42.1253 15.28207645182876
Epoch: 2025-12-14T18:11Z
TLE epoch observation values (Epoch: 2025-12-14T18:11:32.800Z)
Latitude
Longitude
53.86239°
Altitude
481.449 km
Speed
7.626 km/s
True Right ascension
03h 21m 39s
True Declination
0° 00' 00"
Sunlit
Object was in full shadow at epoch
Visualization orbit readout
Latitude
Unknown
Longitude
Unknown
Altitude
Unknown
Speed
Unknown
Apparent Right ascension
Unknown
Apparent Declination
Unknown
Sunlit
N/A
Visualization observer readout
Local Sidereal Time
13:24:36
Azimuth
Unknown
Elevation
Unknown
Doppler factor
Unknown
Orbital elements
Apogee altitude
481.932 km
Perigee altitude
474.362 km
Semi-major axis
6,856.284 km
Eccentricity
0.00055
Inclination
97.8938°
RAAN
50.4154°
Arg. of periapsis
317.9561°
True anomaly
42.16775°
Mean anomaly
42.1253°
Eccentric anomaly
42.14652°
Mean motion
3.82305 °/min
Orbital period
94.17 mins
BSTAR
0.00039784
Loading maneuver chart data...
Computing Atmospheric mass density...
Loading historical data...
Loading historical data...
Loading historical data...
Loading historical data...
Loading historical data...
Loading historical data...
Loading historical data...

Documentation

Showing up to 5 results
|